Weather History for LTAI - October, 2013

Change the Weather History Date:

Wednesday, October 16, 2013

  Actual Average Record
Temperature  
Mean Temperature 65 °F -  
Max Temperature 77 °F 74 °F 91 °F (2004)
Min Temperature 53 °F 55 °F 53 °F (2013)
Growing Degree Days 15 (Base 50)    
Moisture  
Dew Point 49 °F    
Average Humidity 57    
Maximum Humidity 88    
Minimum Humidity 26    
Precipitation  
Precipitation 0.00 in 0.15 in - ()
Sea Level Pressure  
Sea Level Pressure 29.97 in    
Wind  
Wind Speed 4 mph ()    
Max Wind Speed 9 mph    
Max Gust Speed -    
Visibility 6.2 miles    
Events      
Averages and records for this station are not official NWS values.
T = Trace of Precipitation, MM = Missing Value Source: Averaged Metar Reports

Daily Weather History Graph

Daily Weather History Graph

Search for Another Location

Airport or City:

Trip Planner

Search our weather history database for the weather conditions in past years. The results will help you decide how hot, cold, wet, or windy it might be!

Date:

Astronomy

Oct. 16, 2013 Rise Set
Actual Time 7:05 AM EEST 6:18 PM EEST
Civil Twilight 6:39 AM EEST 6:45 PM EEST
Nautical Twilight 6:08 AM EEST 7:15 PM EEST
Astronomical Twilight 5:38 AM EEST 7:45 PM EEST
Moon 4:44 PM EEST (10/16) 4:15 AM EEST (10/16)
Length of Visible Light 12h 05m
Length of Day
11h 13m
Waxing Gibbous, 92% of the Moon is Illuminated
Oct 16
Waxing Gibbous
Oct 19
Full
Oct 27
Last Quarter
Nov 3
New
Nov 10
First Quarter

Hourly Weather History & Observations

Time (EEST) Temp. Dew Point Humidity Pressure Visibility Wind Dir Wind Speed Gust Speed Precip Events Conditions
12:20 AM 59.0 °F 46.4 °F 63% 30.04 in - NNW 4.6 mph - N/A   Clear
12:50 AM 59.0 °F 44.6 °F 59% 30.04 in - NNW 3.5 mph - N/A   Clear
1:20 AM 57.2 °F 44.6 °F 63% 30.04 in - NNW 4.6 mph - N/A   Clear
1:50 AM 59.0 °F 42.8 °F 55% 30.04 in - NNW 4.6 mph - N/A   Clear
2:20 AM 57.2 °F 42.8 °F 59% 30.04 in - North 4.6 mph - N/A   Clear
2:50 AM 57.2 °F 42.8 °F 59% 30.01 in - North 5.8 mph - N/A   Clear
3:00 AM 57 °F 43 °F 48% 30.01 in 6 mi North 5.8 mph - -  
3:20 AM 57.2 °F 42.8 °F 59% 30.01 in - NNW 4.6 mph - N/A   Clear
3:50 AM 57.2 °F 41.0 °F 55% 30.01 in - NW 4.6 mph - N/A   Clear
4:20 AM 57.2 °F 39.2 °F 51% 30.01 in - North 3.5 mph - N/A   Clear
4:50 AM 55.4 °F 41.0 °F 58% 29.98 in - NNW 2.3 mph - N/A   Clear
5:20 AM 57.2 °F 39.2 °F 51% 29.98 in - North 4.6 mph - N/A   Clear
5:50 AM 55.4 °F 39.2 °F 54% 29.98 in - North 5.8 mph - N/A   Clear
6:20 AM 55.4 °F 39.2 °F 54% 29.98 in - NNW 3.5 mph - N/A   Clear
6:50 AM 55.4 °F 39.2 °F 54% 29.98 in - NNW 4.6 mph - N/A   Clear
7:20 AM 53.6 °F 41.0 °F 62% 29.98 in - North 4.6 mph - N/A   Clear
7:50 AM 57.2 °F 41.0 °F 55% 30.01 in - Variable 2.3 mph - N/A   Clear
8:20 AM 60.8 °F 41.0 °F 48% 30.01 in - Variable 2.3 mph - N/A   Clear
8:50 AM 64.4 °F 42.8 °F 45% 30.01 in - North 3.5 mph - N/A   Clear
9:00 AM 64 °F 42 °F 33% 29.99 in 6 mi North 3.5 mph - -  
9:20 AM 68.0 °F 39.2 °F 35% 30.01 in - NNE 4.6 mph - N/A   Clear
9:50 AM 69.8 °F 39.2 °F 33% 30.01 in - North 4.6 mph - N/A   Clear
10:20 AM 73.4 °F 39.2 °F 29% 29.98 in - Variable 2.3 mph - N/A   Clear
10:50 AM 75.2 °F 42.8 °F 31% 29.98 in - Variable 2.3 mph - N/A   Clear
11:20 AM 75.2 °F 41.0 °F 29% 29.98 in - Variable 3.5 mph - N/A   Clear
11:50 AM 77.0 °F 42.8 °F 29% 29.98 in - SSE 4.6 mph - N/A   Clear
12:20 PM 75.2 °F 46.4 °F 36% 29.98 in - SSE 5.8 mph - N/A   Clear
12:50 PM 75.2 °F 44.6 °F 34% 29.98 in - SSE 6.9 mph - N/A   Clear
1:20 PM 77.0 °F 39.2 °F 26% 29.98 in - SE 5.8 mph - N/A   Clear
1:50 PM 77.0 °F 41.0 °F 28% 29.95 in - SE 6.9 mph - N/A   Clear
2:20 PM 75.2 °F 50.0 °F 41% 29.95 in - South 8.1 mph - N/A   Clear
2:50 PM 75.2 °F 53.6 °F 47% 29.95 in - SSE 6.9 mph - N/A   Clear
3:00 PM 76 °F 50 °F 29% 29.94 in 6 mi SSE 6.9 mph - -  
3:20 PM 75.2 °F 55.4 °F 50% 29.95 in - SSE 8.1 mph - N/A   Clear
3:50 PM 75.2 °F 53.6 °F 47% 29.92 in - South 9.2 mph - N/A   Clear
4:20 PM 73.4 °F 60.8 °F 65% 29.92 in 6.2 mi SSE 6.9 mph - N/A   Partly Cloudy
4:50 PM 73.4 °F 62.6 °F 69% 29.92 in 6.2 mi SSE 6.9 mph - N/A   Partly Cloudy
5:20 PM 73.4 °F 62.6 °F 69% 29.92 in 6.2 mi SE 4.6 mph - N/A   Partly Cloudy
5:50 PM 71.6 °F 62.6 °F 73% 29.92 in 6.2 mi Variable 2.3 mph - N/A   Partly Cloudy
6:20 PM 69.8 °F 62.6 °F 78% 29.92 in 6.2 mi SSE 3.5 mph - N/A   Scattered Clouds
6:50 PM 68.0 °F 62.6 °F 83% 29.92 in 6.2 mi South 3.5 mph - N/A   Scattered Clouds
7:20 PM 68.0 °F 60.8 °F 78% 29.92 in 6.2 mi Variable 1.2 mph - N/A   Scattered Clouds
7:50 PM 66.2 °F 62.6 °F 88% 29.92 in 6.2 mi Calm Calm - N/A   Scattered Clouds
8:20 PM 68.0 °F 62.6 °F 83% 29.92 in 6.2 mi East 3.5 mph - N/A   Scattered Clouds
8:50 PM 66.2 °F 60.8 °F 83% 29.92 in 6.2 mi East 4.6 mph - N/A   Scattered Clouds
9:00 PM 66 °F 62 °F 81% 29.91 in 6 mi East 4.6 mph - -   Partly Cloudy
9:20 PM 64.4 °F 60.8 °F 88% 29.92 in 6.2 mi ENE 2.3 mph - N/A   Scattered Clouds
9:50 PM 66.2 °F 60.8 °F 83% 29.92 in 6.2 mi NNE 4.6 mph - N/A   Scattered Clouds
10:20 PM 64.4 °F 60.8 °F 88% 29.92 in 6.2 mi ENE 4.6 mph - N/A   Scattered Clouds
10:50 PM 66.2 °F 60.8 °F 83% 29.92 in 6.2 mi ENE 5.8 mph - N/A   Scattered Clouds
11:20 PM 66.2 °F 62.6 °F 88% 29.92 in 6.2 mi ENE 4.6 mph - N/A   Scattered Clouds
11:50 PM 66.2 °F 62.6 °F 88% 29.92 in 6.2 mi ENE 5.8 mph - N/A   Scattered Clouds